Regional Weather Roundup
Issued by NWS Upton, NY

Current Version | Previous Version | Text Only | Print | Product List | Glossary On
Versions: 1 2 3 4 5 6 7 8 9 10 11 12 13 14 15 16 17 18 19 20 21 22 23 24 25 26 27 28 29 30 31 32 33 34 35 36 37 38 39 40 41 42 43 44 45 46 47 48 49 50
914
ASUS41 KOKX 231808
RWROKX

REGIONAL WEATHER ROUNDUP
NATIONAL WEATHER SERVICE NEW YORK NY
200 PM EDT WED AUG 23 2017

NOTE: "FAIR" INDICATES FEW OR NO CLOUDS BELOW 12,000 FEET WITH NO
SIGNIFICANT WEATHER AND/OR OBSTRUCTIONS TO VISIBILITY.

NYZ071-072-176-178-NJZ106-104-231900-
NEW YORK CITY METRO AREA

CITY           SKY/WX    TMP DP  RH WIND       PRES   REMARKS
Central Park   MOSUNNY   80  53  39 VRB7      29.87S
Bronx Bot Gard   N/A     81  54  39 NW3       29.87S
LaGuardia APRT PTSUNNY   80  54  40 N10       29.83S
Kennedy INTL   CLOUDY    82  54  37 NW8       29.84S
Breezy Point     N/A     79 N/A N/A NW7         N/A
Newark/Liberty PTSUNNY   83  53  35 W16G24    29.84S
Teterboro      MOSUNNY   81  53  37 W12       29.83S
$$

NYZ177-179-078>081-231900-
LONG ISLAND NEW YORK

CITY           SKY/WX    TMP DP  RH WIND       PRES   REMARKS
Jones Beach      N/A     79 N/A N/A NW7         N/A
Matinecock PT    N/A     77 N/A N/A NW9         N/A
Farmingdale    PTSUNNY   80  53  39 NW9G18    29.84R
MacArthur/ISP  PTSUNNY   82  58  43 NW7       29.81S
Shirley        MOSUNNY   83  68  60 NW9       29.81F
Mt Sinai Harb    N/A     79 N/A N/A W7          N/A
Westhampton    NOT AVBL
East Hampton   FAIR      80  64  59 NW7       29.80F
Montauk          N/A     81  67  62 VRB6      29.81S
$$

NYZ052-065-067-231900-
HUDSON VALLEY

CITY           SKY/WX    TMP DP  RH WIND       PRES   REMARKS
White Plains   MOSUNNY   79  53  40 NW16      29.84S
Larchmont Harb   N/A     77 N/A N/A W8          N/A
Croton On Huds   N/A     79 N/A N/A NW10        N/A
Newburgh       MOSUNNY   77  59  53 W12G17    29.87S
Montgomery     MOSUNNY   78  55  44 NW9       29.85S
Poughkeepsie   MOSUNNY   79  53  40 NW10      29.83S
Albany         MOSUNNY   76  51  41 W15G22    29.84R
$$

NJZ001-105-106-008-010-013-015-019>022-104-231900-
NEW JERSEY

CITY           SKY/WX    TMP DP  RH WIND       PRES   REMARKS
Newark/Liberty PTSUNNY   83  53  35 W16G24    29.84S
Teterboro      MOSUNNY   81  53  37 W12       29.83S
Caldwell       MOSUNNY   78  53  41 NW12      29.86S
Somerville     PTSUNNY   79  55  43 NW8       29.84F
Linden         FAIR      80  52  38 NW9       29.86R
Perth Amboy      N/A     77 N/A N/A NW12        N/A
Sussex         MOSUNNY   76  54  46 W8        29.87S
Andover          N/A     77  54  44 W7        29.88S
Trenton        PTSUNNY   80  55  42 NW9       29.86S
Millville      CLOUDY    83  67  58 N9        29.86S
Atlantic City  CLOUDY    83  70  64 N8        29.85F
Wrightstown    MOSUNNY   80  61  51 NW10      29.83S
Toms River     MOSUNNY   81  64  56 NW10      29.86S
Belmar         CLOUDY    80  58  46 W10       29.86S
$$

PAZ047>061-062-071-231900-
EASTERN PENNSYLVANIA

CITY           SKY/WX    TMP DP  RH WIND       PRES   REMARKS
Philadelphia   PTSUNNY   83  55  38 NW12      29.87S
Allentown      PTSUNNY   78  53  41 W7        29.88S
Scranton       PTSUNNY   74  53  48 VRB7      29.90S
$$

CTZ002-004>006-009-010-012-RIZ004-006-007-MAZ004-011-015-231900-
SOUTHERN NEW ENGLAND
 IN CT

CITY           SKY/WX    TMP DP  RH WIND       PRES   REMARKS
Bradley INTL   PTSUNNY   80  53  39 NW9       29.82S
Hartford       MOSUNNY   80  53  39 NW12      29.81S
Danbury        MOSUNNY   78  55  44 W10       29.85S
Wtrbury/Oxford PTSUNNY   76  54  46 NW8       29.85S
Norwalk Harbor   N/A     77 N/A N/A W10         N/A
Bridgeport     PTSUNNY   82  56  40 W6        29.81S
Meriden        PTSUNNY   79  51  37 NW9G17    29.82R
New Haven      MOSUNNY   80  54  40 NW12      29.82R
Chester          N/A     81  54  39 NW8       29.82S
Groton         MOSUNNY   83  62  49 W10       29.78S
Wilimantic     MOSUNNY   79  54  41 VRB7G16   29.81S

 IN RI

CITY           SKY/WX    TMP DP  RH WIND       PRES   REMARKS
Providence     PTSUNNY   84  57  39 W10       29.79S
Block Island   MOSUNNY   80  67  64 W8        29.80S
Westerly       MOSUNNY   84  66  54 SW8       29.80S
 IN MA

CITY           SKY/WX    TMP DP  RH WIND       PRES   REMARKS
Boston         MOSUNNY   82  50  32 W12G22    29.76S
Worcester      SUNNY     75  49  39 W15G24    29.82S
Westfield      MOSUNNY   78  51  38 NW14      29.82R
Provincetown   MOSUNNY   80  66  62 SW7       29.77F
Nantucket      CLOUDY    75  72  90 SW14      29.79S
$$

ANZ330-335-338-340-345-350-353-355-231900-
COASTAL MARINE OBSERVATIONS


STATION/POSITION TIME  SKY/WX   TEMP    WIND        PRES    VSBY  WAVE
                                AIR SEA DIR/SP/G                  HT/PER
                 (UTC)          (F)     (DEG/KT/KT) (MB)    (MI)  (FT/S)
NY HARB ENTRANCE 1650            76 75  300/ 12/ 14 1009.7          3/ 7
GREAT SOUTH BAY  1730            79 79  290/  6/ 10   N/A
23 SSW MONTAUK P 1650            72 72              1009.7          4/ 7
15 E BARNEGAT LI 1730               77                N/A           4/ 6
HUDSON CANYON    1650            76 77  320/  8/ 10 1009.4          5/ 6
KINGS POINT      1724            77 75  340/  9/ 11 1010.3
EXECUTION ROCKS  NOT AVBL
WESTERN LI SOUND NOT AVBL
CENTRAL LI SOUND NOT AVBL
EASTERN LI SOUND NOT AVBL
ROBBINS REEF     1730                   350/  7/ 11 1011.2
$$


>>>>>>>>>>>>>>>>>>>>>>>>>>>> KEY <<<<<<<<<<<<<<<<<<<<<<<<<<<
>                                                          <
>     SKY/WX - Sky Condition/Present Weather               <
>     TMP    - Temperature in Fahrenheit                   <
>     DP     - Dew Point in Fahrenheit                     <
>     RH     - Relative Humidity in Percent                <
>     WIND   - Direction (from) and Speed in MPH           <
>     PRES   - Mean Sea Level Pressure (inches of Hg)      <
>     WCI    - Wind Chill Index                            <
>     VSB    - VISIBILITY IN MILES                         <
>     HX     - HEAT INDEX                                  <
>     TC     - TEMPERATURE IN CELSIUS                      <
>     VRB    - VARIABLE WIND DIRECTION                     <
>                                                          <
>>>>>>>>>>>>>>>>>>>>>>>>>>>> KEY <<<<<<<<<<<<<<<<<<<<<<<<<<<




USA.gov is the U.S. government's official web portal to all federal, state and local government web resources and services.